owner,sensor,date,latitude,longitude,vertical_datum,sea_water_temperature,qcFlag 
COMPS,ioos:station:USF.COMPS:C10:1,2019-02-01T03:05:00Z,27.1690,-82.9260,-1.0,17.22,11111222 
COMPS,ioos:station:USF.COMPS:C10:1,2019-02-01T03:35:00Z,27.1690,-82.9260,-1.0,17.22,11111222 
COMPS,ioos:station:USF.COMPS:C10:1,2019-02-01T06:05:00Z,27.1690,-82.9260,-1.0,17.17,11111222 
COMPS,ioos:station:USF.COMPS:C10:1,2019-02-01T06:35:00Z,27.1690,-82.9260,-1.0,17.17,11111222 
COMPS,ioos:station:USF.COMPS:C10:1,2019-02-01T07:05:00Z,27.1690,-82.9260,-1.0,17.15,11111222 
COMPS,ioos:station:USF.COMPS:C10:1,2019-02-01T07:35:00Z,27.1690,-82.9260,-1.0,17.16,11111222 
COMPS,ioos:station:USF.COMPS:C10:1,2019-02-01T09:05:00Z,27.1690,-82.9260,-1.0,17.13,11111222 
COMPS,ioos:station:USF.COMPS:C10:1,2019-02-01T09:35:00Z,27.1690,-82.9260,-1.0,17.12,11111222 
COMPS,ioos:station:USF.COMPS:C10:1,2019-02-01T10:05:00Z,27.1690,-82.9260,-1.0,17.12,11111222 
COMPS,ioos:station:USF.COMPS:C10:1,2019-02-01T10:35:00Z,27.1690,-82.9260,-1.0,17.14,11111222 
COMPS,ioos:station:USF.COMPS:C10:1,2019-02-01T11:05:00Z,27.1690,-82.9260,-1.0,17.13,11111222 
COMPS,ioos:station:USF.COMPS:C10:1,2019-02-01T11:35:00Z,27.1690,-82.9260,-1.0,17.14,11111222 
COMPS,ioos:station:USF.COMPS:C10:1,2019-02-01T12:05:00Z,27.1690,-82.9260,-1.0,17.15,11111222 
COMPS,ioos:station:USF.COMPS:C10:1,2019-02-01T12:35:00Z,27.1690,-82.9260,-1.0,17.15,11111222 
COMPS,ioos:station:USF.COMPS:C10:1,2019-02-01T13:05:00Z,27.1690,-82.9260,-1.0,17.15,11111222 
COMPS,ioos:station:USF.COMPS:C10:1,2019-02-01T13:35:00Z,27.1690,-82.9260,-1.0,17.17,11111222 
COMPS,ioos:station:USF.COMPS:C10:1,2019-02-01T16:05:00Z,27.1690,-82.9260,-1.0,17.27,11111222 
COMPS,ioos:station:USF.COMPS:C10:1,2019-02-01T16:35:00Z,27.1690,-82.9260,-1.0,17.3,11111222 
COMPS,ioos:station:USF.COMPS:C10:1,2019-02-01T17:05:00Z,27.1690,-82.9260,-1.0,17.36,11111222 
COMPS,ioos:station:USF.COMPS:C10:1,2019-02-01T17:35:00Z,27.1690,-82.9260,-1.0,17.52,11111222 
COMPS,ioos:station:USF.COMPS:C10:1,2019-02-01T19:05:00Z,27.1690,-82.9260,-1.0,17.69,11111222 
COMPS,ioos:station:USF.COMPS:C10:1,2019-02-01T19:35:00Z,27.1690,-82.9260,-1.0,18.06,11111222 
COMPS,ioos:station:USF.COMPS:C10:1,2019-02-01T20:05:00Z,27.1690,-82.9260,-1.0,17.72,11111222 
COMPS,ioos:station:USF.COMPS:C10:1,2019-02-01T20:35:00Z,27.1690,-82.9260,-1.0,18.0,11111222 
COMPS,ioos:station:USF.COMPS:C10:1,2019-02-01T21:05:00Z,27.1690,-82.9260,-1.0,18.04,11111222 
COMPS,ioos:station:USF.COMPS:C10:1,2019-02-01T21:35:00Z,27.1690,-82.9260,-1.0,17.99,11111222 
COMPS,ioos:station:USF.COMPS:C10:1,2019-02-01T22:05:00Z,27.1690,-82.9260,-1.0,17.88,11111222 
COMPS,ioos:station:USF.COMPS:C10:1,2019-02-01T22:35:00Z,27.1690,-82.9260,-1.0,17.87,11111222 
COMPS,ioos:station:USF.COMPS:C10:1,2019-02-01T23:05:00Z,27.1690,-82.9260,-1.0,17.81,11111222 
COMPS,ioos:station:USF.COMPS:C10:1,2019-02-01T23:35:00Z,27.1690,-82.9260,-1.0,17.78,11111222 
COMPS,ioos:station:USF.COMPS:C10:1,2019-02-02T00:05:00Z,27.1690,-82.9260,-1.0,17.77,11111222 
COMPS,ioos:station:USF.COMPS:C10:1,2019-02-02T00:35:00Z,27.1690,-82.9260,-1.0,17.74,11111222 
COMPS,ioos:station:USF.COMPS:C10:1,2019-02-02T02:05:00Z,27.1690,-82.9260,-1.0,17.68,11111222 
COMPS,ioos:station:USF.COMPS:C10:1,2019-02-02T02:35:00Z,27.1690,-82.9260,-1.0,17.66,11111222 
COMPS,ioos:station:USF.COMPS:C10:1,2019-02-02T03:05:00Z,27.1690,-82.9260,-1.0,17.62,11111222 
COMPS,ioos:station:USF.COMPS:C10:1,2019-02-02T03:35:00Z,27.1690,-82.9260,-1.0,17.58,11111222 
COMPS,ioos:station:USF.COMPS:C10:1,2019-02-02T05:05:00Z,27.1690,-82.9260,-1.0,17.48,11111222 
COMPS,ioos:station:USF.COMPS:C10:1,2019-02-02T05:35:00Z,27.1690,-82.9260,-1.0,17.47,11111222 
COMPS,ioos:station:USF.COMPS:C10:1,2019-02-02T06:05:00Z,27.1690,-82.9260,-1.0,17.43,11111222 
COMPS,ioos:station:USF.COMPS:C10:1,2019-02-02T06:35:00Z,27.1690,-82.9260,-1.0,17.45,11111222 
COMPS,ioos:station:USF.COMPS:C10:1,2019-02-02T07:05:00Z,27.1690,-82.9260,-1.0,17.4,11111222 
COMPS,ioos:station:USF.COMPS:C10:1,2019-02-02T07:35:00Z,27.1690,-82.9260,-1.0,17.38,11111222 
COMPS,ioos:station:USF.COMPS:C10:1,2019-02-02T08:05:00Z,27.1690,-82.9260,-1.0,17.35,11111222 
COMPS,ioos:station:USF.COMPS:C10:1,2019-02-02T08:35:00Z,27.1690,-82.9260,-1.0,17.32,11111222 
COMPS,ioos:station:USF.COMPS:C10:1,2019-02-02T09:05:00Z,27.1690,-82.9260,-1.0,17.28,11111222 
COMPS,ioos:station:USF.COMPS:C10:1,2019-02-02T09:35:00Z,27.1690,-82.9260,-1.0,17.27,11111222 
COMPS,ioos:station:USF.COMPS:C10:1,2019-02-02T10:05:00Z,27.1690,-82.9260,-1.0,17.27,11111222 
COMPS,ioos:station:USF.COMPS:C10:1,2019-02-02T10:35:00Z,27.1690,-82.9260,-1.0,17.31,11111222 
COMPS,ioos:station:USF.COMPS:C10:1,2019-02-02T11:05:00Z,27.1690,-82.9260,-1.0,17.3,11111222 
COMPS,ioos:station:USF.COMPS:C10:1,2019-02-02T11:35:00Z,27.1690,-82.9260,-1.0,17.32,11111222 
COMPS,ioos:station:USF.COMPS:C10:1,2019-02-02T12:05:00Z,27.1690,-82.9260,-1.0,17.31,11111222 
COMPS,ioos:station:USF.COMPS:C10:1,2019-02-02T12:35:00Z,27.1690,-82.9260,-1.0,17.32,11111222 
COMPS,ioos:station:USF.COMPS:C10:1,2019-02-02T13:05:00Z,27.1690,-82.9260,-1.0,17.32,11111222 
COMPS,ioos:station:USF.COMPS:C10:1,2019-02-02T13:35:00Z,27.1690,-82.9260,-1.0,17.32,11111222 
COMPS,ioos:station:USF.COMPS:C10:1,2019-02-02T14:05:00Z,27.1690,-82.9260,-1.0,17.36,11111222 
COMPS,ioos:station:USF.COMPS:C10:1,2019-02-02T14:35:00Z,27.1690,-82.9260,-1.0,17.42,11111222 
COMPS,ioos:station:USF.COMPS:C10:1,2019-02-02T15:05:00Z,27.1690,-82.9260,-1.0,17.42,11111222 
COMPS,ioos:station:USF.COMPS:C10:1,2019-02-02T15:35:00Z,27.1690,-82.9260,-1.0,17.47,11111222 
COMPS,ioos:station:USF.COMPS:C10:1,2019-02-02T16:05:00Z,27.1690,-82.9260,-1.0,17.54,11111222 
COMPS,ioos:station:USF.COMPS:C10:1,2019-02-02T16:35:00Z,27.1690,-82.9260,-1.0,17.67,11111222 
COMPS,ioos:station:USF.COMPS:C10:1,2019-02-02T17:05:00Z,27.1690,-82.9260,-1.0,17.73,11111222 
COMPS,ioos:station:USF.COMPS:C10:1,2019-02-02T17:35:00Z,27.1690,-82.9260,-1.0,17.83,11111222 
COMPS,ioos:station:USF.COMPS:C10:1,2019-02-02T18:05:00Z,27.1690,-82.9260,-1.0,18.03,11111222 
COMPS,ioos:station:USF.COMPS:C10:1,2019-02-02T18:35:00Z,27.1690,-82.9260,-1.0,18.35,11111222 
COMPS,ioos:station:USF.COMPS:C10:1,2019-02-02T19:05:00Z,27.1690,-82.9260,-1.0,18.49,11111222 
COMPS,ioos:station:USF.COMPS:C10:1,2019-02-02T19:35:00Z,27.1690,-82.9260,-1.0,18.62,11111222 
COMPS,ioos:station:USF.COMPS:C10:1,2019-02-02T20:05:00Z,27.1690,-82.9260,-1.0,18.51,11111222 
COMPS,ioos:station:USF.COMPS:C10:1,2019-02-02T20:35:00Z,27.1690,-82.9260,-1.0,18.59,11111222 
COMPS,ioos:station:USF.COMPS:C10:1,2019-02-02T21:05:00Z,27.1690,-82.9260,-1.0,18.62,11111222 
COMPS,ioos:station:USF.COMPS:C10:1,2019-02-02T21:35:00Z,27.1690,-82.9260,-1.0,18.68,11111222 
COMPS,ioos:station:USF.COMPS:C10:1,2019-02-02T22:05:00Z,27.1690,-82.9260,-1.0,18.64,11111222 
COMPS,ioos:station:USF.COMPS:C10:1,2019-02-02T22:35:00Z,27.1690,-82.9260,-1.0,18.69,11111222 
COMPS,ioos:station:USF.COMPS:C10:1,2019-02-02T23:05:00Z,27.1690,-82.9260,-1.0,18.68,11111222 
COMPS,ioos:station:USF.COMPS:C10:1,2019-02-02T23:35:00Z,27.1690,-82.9260,-1.0,18.6,11111222 
COMPS,ioos:station:USF.COMPS:C10:1,2019-02-03T00:05:00Z,27.1690,-82.9260,-1.0,18.55,11111222 
COMPS,ioos:station:USF.COMPS:C10:1,2019-02-03T00:35:00Z,27.1690,-82.9260,-1.0,18.47,11111222 
COMPS,ioos:station:USF.COMPS:C10:1,2019-02-03T01:05:00Z,27.1690,-82.9260,-1.0,18.53,11111222 
COMPS,ioos:station:USF.COMPS:C10:1,2019-02-03T01:35:00Z,27.1690,-82.9260,-1.0,18.52,11111222 
COMPS,ioos:station:USF.COMPS:C10:1,2019-02-03T02:05:00Z,27.1690,-82.9260,-1.0,18.5,11111222 
COMPS,ioos:station:USF.COMPS:C10:1,2019-02-03T02:35:00Z,27.1690,-82.9260,-1.0,18.48,11111222 
COMPS,ioos:station:USF.COMPS:C10:1,2019-02-03T03:05:00Z,27.1690,-82.9260,-1.0,18.51,11111222 
COMPS,ioos:station:USF.COMPS:C10:1,2019-02-03T03:35:00Z,27.1690,-82.9260,-1.0,18.48,11111222 
COMPS,ioos:station:USF.COMPS:C10:1,2019-02-03T04:05:00Z,27.1690,-82.9260,-1.0,18.41,11111222 
COMPS,ioos:station:USF.COMPS:C10:1,2019-02-03T04:35:00Z,27.1690,-82.9260,-1.0,18.45,11111222 
COMPS,ioos:station:USF.COMPS:C10:1,2019-02-03T05:05:00Z,27.1690,-82.9260,-1.0,18.43,11111222 
COMPS,ioos:station:USF.COMPS:C10:1,2019-02-03T05:35:00Z,27.1690,-82.9260,-1.0,18.39,11111222 
COMPS,ioos:station:USF.COMPS:C10:1,2019-02-03T06:05:00Z,27.1690,-82.9260,-1.0,18.24,11111222 
COMPS,ioos:station:USF.COMPS:C10:1,2019-02-03T06:35:00Z,27.1690,-82.9260,-1.0,18.11,11111222 
COMPS,ioos:station:USF.COMPS:C10:1,2019-02-03T07:05:00Z,27.1690,-82.9260,-1.0,18.17,11111222 
COMPS,ioos:station:USF.COMPS:C10:1,2019-02-03T07:35:00Z,27.1690,-82.9260,-1.0,18.13,11111222 
COMPS,ioos:station:USF.COMPS:C10:1,2019-02-03T08:05:00Z,27.1690,-82.9260,-1.0,18.2,11111222 
COMPS,ioos:station:USF.COMPS:C10:1,2019-02-03T08:35:00Z,27.1690,-82.9260,-1.0,18.29,11111222 
COMPS,ioos:station:USF.COMPS:C10:1,2019-02-03T09:05:00Z,27.1690,-82.9260,-1.0,18.3,11111222 
COMPS,ioos:station:USF.COMPS:C10:1,2019-02-03T09:35:00Z,27.1690,-82.9260,-1.0,18.32,11111222 
COMPS,ioos:station:USF.COMPS:C10:1,2019-02-03T10:05:00Z,27.1690,-82.9260,-1.0,18.33,11111222 
COMPS,ioos:station:USF.COMPS:C10:1,2019-02-03T10:35:00Z,27.1690,-82.9260,-1.0,18.33,11111222 
COMPS,ioos:station:USF.COMPS:C10:1,2019-02-03T11:05:00Z,27.1690,-82.9260,-1.0,18.32,11111222 
COMPS,ioos:station:USF.COMPS:C10:1,2019-02-03T11:35:00Z,27.1690,-82.9260,-1.0,18.3,11111222 
COMPS,ioos:station:USF.COMPS:C10:1,2019-02-03T12:05:00Z,27.1690,-82.9260,-1.0,18.27,11111222 
COMPS,ioos:station:USF.COMPS:C10:1,2019-02-03T12:35:00Z,27.1690,-82.9260,-1.0,18.3,11111222 
COMPS,ioos:station:USF.COMPS:C10:1,2019-02-03T13:05:00Z,27.1690,-82.9260,-1.0,18.3,11111222 
COMPS,ioos:station:USF.COMPS:C10:1,2019-02-03T13:35:00Z,27.1690,-82.9260,-1.0,18.3,11111222 
COMPS,ioos:station:USF.COMPS:C10:1,2019-02-03T14:05:00Z,27.1690,-82.9260,-1.0,18.34,11111222 
COMPS,ioos:station:USF.COMPS:C10:1,2019-02-03T14:35:00Z,27.1690,-82.9260,-1.0,18.34,11111222 
COMPS,ioos:station:USF.COMPS:C10:1,2019-02-03T15:05:00Z,27.1690,-82.9260,-1.0,18.4,11111222 
COMPS,ioos:station:USF.COMPS:C10:1,2019-02-03T15:35:00Z,27.1690,-82.9260,-1.0,18.42,11111222 
COMPS,ioos:station:USF.COMPS:C10:1,2019-02-03T16:05:00Z,27.1690,-82.9260,-1.0,18.41,11111222 
COMPS,ioos:station:USF.COMPS:C10:1,2019-02-03T16:35:00Z,27.1690,-82.9260,-1.0,18.22,11111222 
COMPS,ioos:station:USF.COMPS:C10:1,2019-02-03T17:05:00Z,27.1690,-82.9260,-1.0,18.54,11111222 
COMPS,ioos:station:USF.COMPS:C10:1,2019-02-03T17:35:00Z,27.1690,-82.9260,-1.0,18.6,11111222 
COMPS,ioos:station:USF.COMPS:C10:1,2019-02-03T18:05:00Z,27.1690,-82.9260,-1.0,18.61,11111222 
COMPS,ioos:station:USF.COMPS:C10:1,2019-02-03T18:35:00Z,27.1690,-82.9260,-1.0,18.71,11111222 
COMPS,ioos:station:USF.COMPS:C10:1,2019-02-03T19:05:00Z,27.1690,-82.9260,-1.0,18.76,11111222 
COMPS,ioos:station:USF.COMPS:C10:1,2019-02-03T19:35:00Z,27.1690,-82.9260,-1.0,18.87,11111222 
COMPS,ioos:station:USF.COMPS:C10:1,2019-02-03T20:05:00Z,27.1690,-82.9260,-1.0,18.93,11111222 
COMPS,ioos:station:USF.COMPS:C10:1,2019-02-03T20:35:00Z,27.1690,-82.9260,-1.0,18.99,11111222 
COMPS,ioos:station:USF.COMPS:C10:1,2019-02-03T22:05:00Z,27.1690,-82.9260,-1.0,19.04,11111222 
COMPS,ioos:station:USF.COMPS:C10:1,2019-02-03T22:35:00Z,27.1690,-82.9260,-1.0,19.09,11111222 
COMPS,ioos:station:USF.COMPS:C10:1,2019-02-03T23:05:00Z,27.1690,-82.9260,-1.0,19.11,11111222 
COMPS,ioos:station:USF.COMPS:C10:1,2019-02-03T23:35:00Z,27.1690,-82.9260,-1.0,19.08,11111222 
COMPS,ioos:station:USF.COMPS:C10:1,2019-02-04T00:05:00Z,27.1690,-82.9260,-1.0,19.18,11111222 
COMPS,ioos:station:USF.COMPS:C10:1,2019-02-04T00:35:00Z,27.1690,-82.9260,-1.0,19.21,11111222 
COMPS,ioos:station:USF.COMPS:C10:1,2019-02-04T01:05:00Z,27.1690,-82.9260,-1.0,19.19,11111222 
COMPS,ioos:station:USF.COMPS:C10:1,2019-02-04T01:35:00Z,27.1690,-82.9260,-1.0,19.22,11111222 
COMPS,ioos:station:USF.COMPS:C10:1,2019-02-04T02:05:00Z,27.1690,-82.9260,-1.0,19.19,11111222 
COMPS,ioos:station:USF.COMPS:C10:1,2019-02-04T02:35:00Z,27.1690,-82.9260,-1.0,19.17,11111222 
COMPS,ioos:station:USF.COMPS:C10:1,2019-02-04T03:05:00Z,27.1690,-82.9260,-1.0,19.17,11111222 
COMPS,ioos:station:USF.COMPS:C10:1,2019-02-04T03:35:00Z,27.1690,-82.9260,-1.0,19.24,11111222 
COMPS,ioos:station:USF.COMPS:C10:1,2019-02-04T04:05:00Z,27.1690,-82.9260,-1.0,19.2,11111222 
COMPS,ioos:station:USF.COMPS:C10:1,2019-02-04T04:35:00Z,27.1690,-82.9260,-1.0,19.02,11111222 
COMPS,ioos:station:USF.COMPS:C10:1,2019-02-04T05:05:00Z,27.1690,-82.9260,-1.0,19.15,11111222 
COMPS,ioos:station:USF.COMPS:C10:1,2019-02-04T05:35:00Z,27.1690,-82.9260,-1.0,18.76,11111222 
COMPS,ioos:station:USF.COMPS:C10:1,2019-02-04T06:05:00Z,27.1690,-82.9260,-1.0,18.98,11111222 
COMPS,ioos:station:USF.COMPS:C10:1,2019-02-04T06:35:00Z,27.1690,-82.9260,-1.0,18.87,11111222 
COMPS,ioos:station:USF.COMPS:C10:1,2019-02-04T07:05:00Z,27.1690,-82.9260,-1.0,18.67,11111222 
COMPS,ioos:station:USF.COMPS:C10:1,2019-02-04T07:35:00Z,27.1690,-82.9260,-1.0,18.9,11111222 
COMPS,ioos:station:USF.COMPS:C10:1,2019-02-04T08:05:00Z,27.1690,-82.9260,-1.0,18.96,11111222 
COMPS,ioos:station:USF.COMPS:C10:1,2019-02-04T08:35:00Z,27.1690,-82.9260,-1.0,18.83,11111222 
COMPS,ioos:station:USF.COMPS:C10:1,2019-02-04T09:05:00Z,27.1690,-82.9260,-1.0,18.76,11111222 
COMPS,ioos:station:USF.COMPS:C10:1,2019-02-04T09:35:00Z,27.1690,-82.9260,-1.0,18.73,11111222 
COMPS,ioos:station:USF.COMPS:C10:1,2019-02-04T10:05:00Z,27.1690,-82.9260,-1.0,18.64,11111222 
COMPS,ioos:station:USF.COMPS:C10:1,2019-02-04T10:35:00Z,27.1690,-82.9260,-1.0,18.61,11111222 
COMPS,ioos:station:USF.COMPS:C10:1,2019-02-04T11:05:00Z,27.1690,-82.9260,-1.0,18.6,11111222 
COMPS,ioos:station:USF.COMPS:C10:1,2019-02-04T11:35:00Z,27.1690,-82.9260,-1.0,18.59,11111222 
COMPS,ioos:station:USF.COMPS:C10:1,2019-02-04T12:05:00Z,27.1690,-82.9260,-1.0,18.59,11111222 
COMPS,ioos:station:USF.COMPS:C10:1,2019-02-04T12:35:00Z,27.1690,-82.9260,-1.0,18.55,11111222 
COMPS,ioos:station:USF.COMPS:C10:1,2019-02-04T13:05:00Z,27.1690,-82.9260,-1.0,18.59,11111222 
COMPS,ioos:station:USF.COMPS:C10:1,2019-02-04T13:35:00Z,27.1690,-82.9260,-1.0,18.62,11111222 
COMPS,ioos:station:USF.COMPS:C10:1,2019-02-04T14:05:00Z,27.1690,-82.9260,-1.0,18.62,11111222 
COMPS,ioos:station:USF.COMPS:C10:1,2019-02-04T14:35:00Z,27.1690,-82.9260,-1.0,18.63,11111222 
COMPS,ioos:station:USF.COMPS:C10:1,2019-02-04T15:05:00Z,27.1690,-82.9260,-1.0,18.62,11111222 
COMPS,ioos:station:USF.COMPS:C10:1,2019-02-04T15:35:00Z,27.1690,-82.9260,-1.0,18.65,11111222 
COMPS,ioos:station:USF.COMPS:C10:1,2019-02-04T16:05:00Z,27.1690,-82.9260,-1.0,18.67,11111222 
COMPS,ioos:station:USF.COMPS:C10:1,2019-02-04T16:35:00Z,27.1690,-82.9260,-1.0,18.73,11111222 
COMPS,ioos:station:USF.COMPS:C10:1,2019-02-04T17:05:00Z,27.1690,-82.9260,-1.0,18.76,11111222 
COMPS,ioos:station:USF.COMPS:C10:1,2019-02-04T17:35:00Z,27.1690,-82.9260,-1.0,18.74,11111222 
COMPS,ioos:station:USF.COMPS:C10:1,2019-02-04T18:05:00Z,27.1690,-82.9260,-1.0,18.8,11111222 
COMPS,ioos:station:USF.COMPS:C10:1,2019-02-04T18:35:00Z,27.1690,-82.9260,-1.0,18.86,11111222 
COMPS,ioos:station:USF.COMPS:C10:1,2019-02-04T19:05:00Z,27.1690,-82.9260,-1.0,18.98,11111222 
COMPS,ioos:station:USF.COMPS:C10:1,2019-02-04T19:35:00Z,27.1690,-82.9260,-1.0,18.88,11111222 
COMPS,ioos:station:USF.COMPS:C10:1,2019-02-04T20:05:00Z,27.1690,-82.9260,-1.0,18.89,11111222 
COMPS,ioos:station:USF.COMPS:C10:1,2019-02-04T20:35:00Z,27.1690,-82.9260,-1.0,18.97,11111222 
COMPS,ioos:station:USF.COMPS:C10:1,2019-02-04T21:05:00Z,27.1690,-82.9260,-1.0,19.0,11111222 
COMPS,ioos:station:USF.COMPS:C10:1,2019-02-04T21:35:00Z,27.1690,-82.9260,-1.0,19.03,11111222 
COMPS,ioos:station:USF.COMPS:C10:1,2019-02-04T22:05:00Z,27.1690,-82.9260,-1.0,19.36,11111222 
COMPS,ioos:station:USF.COMPS:C10:1,2019-02-04T22:35:00Z,27.1690,-82.9260,-1.0,19.43,11111222 
COMPS,ioos:station:USF.COMPS:C10:1,2019-02-04T23:05:00Z,27.1690,-82.9260,-1.0,19.48,11111222 
COMPS,ioos:station:USF.COMPS:C10:1,2019-02-04T23:35:00Z,27.1690,-82.9260,-1.0,19.13,11111222 
COMPS,ioos:station:USF.COMPS:C10:1,2019-02-05T00:05:00Z,27.1690,-82.9260,-1.0,19.05,11111222 
COMPS,ioos:station:USF.COMPS:C10:1,2019-02-05T00:35:00Z,27.1690,-82.9260,-1.0,18.88,11111222 
COMPS,ioos:station:USF.COMPS:C10:1,2019-02-05T01:05:00Z,27.1690,-82.9260,-1.0,18.75,11111222 
COMPS,ioos:station:USF.COMPS:C10:1,2019-02-05T01:35:00Z,27.1690,-82.9260,-1.0,18.75,11111222 
COMPS,ioos:station:USF.COMPS:C10:1,2019-02-05T02:05:00Z,27.1690,-82.9260,-1.0,18.77,11111222 
COMPS,ioos:station:USF.COMPS:C10:1,2019-02-05T02:35:00Z,27.1690,-82.9260,-1.0,18.71,11111222 
COMPS,ioos:station:USF.COMPS:C10:1,2019-02-05T03:05:00Z,27.1690,-82.9260,-1.0,18.69,11111222 
COMPS,ioos:station:USF.COMPS:C10:1,2019-02-05T03:35:00Z,27.1690,-82.9260,-1.0,18.61,11111222 
COMPS,ioos:station:USF.COMPS:C10:1,2019-02-05T04:05:00Z,27.1690,-82.9260,-1.0,18.52,11111222 
COMPS,ioos:station:USF.COMPS:C10:1,2019-02-05T04:35:00Z,27.1690,-82.9260,-1.0,18.47,11111222 
COMPS,ioos:station:USF.COMPS:C10:1,2019-02-05T05:05:00Z,27.1690,-82.9260,-1.0,18.4,11111222 
COMPS,ioos:station:USF.COMPS:C10:1,2019-02-05T05:35:00Z,27.1690,-82.9260,-1.0,18.39,11111222 
COMPS,ioos:station:USF.COMPS:C10:1,2019-02-05T06:05:00Z,27.1690,-82.9260,-1.0,18.37,11111222 
COMPS,ioos:station:USF.COMPS:C10:1,2019-02-05T06:35:00Z,27.1690,-82.9260,-1.0,18.35,11111222 
COMPS,ioos:station:USF.COMPS:C10:1,2019-02-05T07:05:00Z,27.1690,-82.9260,-1.0,18.37,11111222 
COMPS,ioos:station:USF.COMPS:C10:1,2019-02-05T07:35:00Z,27.1690,-82.9260,-1.0,18.4,11111222 
COMPS,ioos:station:USF.COMPS:C10:1,2019-02-05T08:05:00Z,27.1690,-82.9260,-1.0,18.42,11111222 
COMPS,ioos:station:USF.COMPS:C10:1,2019-02-05T08:35:00Z,27.1690,-82.9260,-1.0,18.4,11111222 
COMPS,ioos:station:USF.COMPS:C10:1,2019-02-05T09:05:00Z,27.1690,-82.9260,-1.0,18.29,11111222 
COMPS,ioos:station:USF.COMPS:C10:1,2019-02-05T09:35:00Z,27.1690,-82.9260,-1.0,18.2,11111222 
COMPS,ioos:station:USF.COMPS:C10:1,2019-02-05T10:05:00Z,27.1690,-82.9260,-1.0,18.14,11111222 
COMPS,ioos:station:USF.COMPS:C10:1,2019-02-05T10:35:00Z,27.1690,-82.9260,-1.0,18.09,11111222 
COMPS,ioos:station:USF.COMPS:C10:1,2019-02-05T11:05:00Z,27.1690,-82.9260,-1.0,18.07,11111222 
COMPS,ioos:station:USF.COMPS:C10:1,2019-02-05T11:35:00Z,27.1690,-82.9260,-1.0,18.04,11111222 
COMPS,ioos:station:USF.COMPS:C10:1,2019-02-05T12:05:00Z,27.1690,-82.9260,-1.0,18.06,11111222 
COMPS,ioos:station:USF.COMPS:C10:1,2019-02-05T12:35:00Z,27.1690,-82.9260,-1.0,18.09,11111222 
COMPS,ioos:station:USF.COMPS:C10:1,2019-02-05T13:05:00Z,27.1690,-82.9260,-1.0,18.06,11111222 
COMPS,ioos:station:USF.COMPS:C10:1,2019-02-05T13:35:00Z,27.1690,-82.9260,-1.0,18.04,11111222 
COMPS,ioos:station:USF.COMPS:C10:1,2019-02-05T14:05:00Z,27.1690,-82.9260,-1.0,18.01,11111222 
COMPS,ioos:station:USF.COMPS:C10:1,2019-02-05T14:35:00Z,27.1690,-82.9260,-1.0,18.03,11111222 
COMPS,ioos:station:USF.COMPS:C10:1,2019-02-05T15:05:00Z,27.1690,-82.9260,-1.0,18.07,11111222 
COMPS,ioos:station:USF.COMPS:C10:1,2019-02-05T15:35:00Z,27.1690,-82.9260,-1.0,18.1,11111222 
COMPS,ioos:station:USF.COMPS:C10:1,2019-02-05T18:05:00Z,27.1690,-82.9260,-1.0,18.63,11111222 
COMPS,ioos:station:USF.COMPS:C10:1,2019-02-05T18:35:00Z,27.1690,-82.9260,-1.0,18.88,11111222 
COMPS,ioos:station:USF.COMPS:C10:1,2019-02-05T19:05:00Z,27.1690,-82.9260,-1.0,18.74,11111222 
COMPS,ioos:station:USF.COMPS:C10:1,2019-02-05T19:35:00Z,27.1690,-82.9260,-1.0,19.31,11111222 
COMPS,ioos:station:USF.COMPS:C10:1,2019-02-05T20:05:00Z,27.1690,-82.9260,-1.0,18.9,11111222 
COMPS,ioos:station:USF.COMPS:C10:1,2019-02-05T20:35:00Z,27.1690,-82.9260,-1.0,19.16,11111222 
COMPS,ioos:station:USF.COMPS:C10:1,2019-02-05T21:05:00Z,27.1690,-82.9260,-1.0,19.06,11111222 
COMPS,ioos:station:USF.COMPS:C10:1,2019-02-05T21:35:00Z,27.1690,-82.9260,-1.0,19.01,11111222 
COMPS,ioos:station:USF.COMPS:C10:1,2019-02-05T22:05:00Z,27.1690,-82.9260,-1.0,19.51,11111222 
COMPS,ioos:station:USF.COMPS:C10:1,2019-02-05T22:35:00Z,27.1690,-82.9260,-1.0,19.37,11111222 
COMPS,ioos:station:USF.COMPS:C10:1,2019-02-05T23:05:00Z,27.1690,-82.9260,-1.0,19.01,11111222 
COMPS,ioos:station:USF.COMPS:C10:1,2019-02-05T23:35:00Z,27.1690,-82.9260,-1.0,18.82,11111222 
COMPS,ioos:station:USF.COMPS:C10:1,2019-02-06T00:05:00Z,27.1690,-82.9260,-1.0,18.78,11111222 
COMPS,ioos:station:USF.COMPS:C10:1,2019-02-06T00:35:00Z,27.1690,-82.9260,-1.0,18.76,11111222 
COMPS,ioos:station:USF.COMPS:C10:1,2019-02-06T01:05:00Z,27.1690,-82.9260,-1.0,18.72,11111222 
COMPS,ioos:station:USF.COMPS:C10:1,2019-02-06T01:35:00Z,27.1690,-82.9260,-1.0,18.81,11111222 
COMPS,ioos:station:USF.COMPS:C10:1,2019-02-06T02:05:00Z,27.1690,-82.9260,-1.0,18.85,11111222 
COMPS,ioos:station:USF.COMPS:C10:1,2019-02-06T02:35:00Z,27.1690,-82.9260,-1.0,18.82,11111222 
COMPS,ioos:station:USF.COMPS:C10:1,2019-02-06T03:05:00Z,27.1690,-82.9260,-1.0,18.78,11111222 
COMPS,ioos:station:USF.COMPS:C10:1,2019-02-06T03:35:00Z,27.1690,-82.9260,-1.0,18.72,11111222 
COMPS,ioos:station:USF.COMPS:C10:1,2019-02-06T04:05:00Z,27.1690,-82.9260,-1.0,18.63,11111222 
COMPS,ioos:station:USF.COMPS:C10:1,2019-02-06T04:35:00Z,27.1690,-82.9260,-1.0,18.55,11111222 
COMPS,ioos:station:USF.COMPS:C10:1,2019-02-06T05:05:00Z,27.1690,-82.9260,-1.0,18.48,11111222 
COMPS,ioos:station:USF.COMPS:C10:1,2019-02-06T05:35:00Z,27.1690,-82.9260,-1.0,18.45,11111222 
COMPS,ioos:station:USF.COMPS:C10:1,2019-02-06T06:05:00Z,27.1690,-82.9260,-1.0,18.46,11111222 
COMPS,ioos:station:USF.COMPS:C10:1,2019-02-06T06:35:00Z,27.1690,-82.9260,-1.0,18.44,11111222 
COMPS,ioos:station:USF.COMPS:C10:1,2019-02-06T07:05:00Z,27.1690,-82.9260,-1.0,18.42,11111222 
COMPS,ioos:station:USF.COMPS:C10:1,2019-02-06T07:35:00Z,27.1690,-82.9260,-1.0,18.42,11111222 
COMPS,ioos:station:USF.COMPS:C10:1,2019-02-06T08:05:00Z,27.1690,-82.9260,-1.0,18.4,11111222 
COMPS,ioos:station:USF.COMPS:C10:1,2019-02-06T08:35:00Z,27.1690,-82.9260,-1.0,18.33,11111222 
COMPS,ioos:station:USF.COMPS:C10:1,2019-02-06T09:05:00Z,27.1690,-82.9260,-1.0,18.26,11111222 
COMPS,ioos:station:USF.COMPS:C10:1,2019-02-06T09:35:00Z,27.1690,-82.9260,-1.0,18.14,11111222 
COMPS,ioos:station:USF.COMPS:C10:1,2019-02-06T10:05:00Z,27.1690,-82.9260,-1.0,18.0,11111222 
COMPS,ioos:station:USF.COMPS:C10:1,2019-02-06T10:35:00Z,27.1690,-82.9260,-1.0,17.9,11111222 
COMPS,ioos:station:USF.COMPS:C10:1,2019-02-06T11:05:00Z,27.1690,-82.9260,-1.0,17.9,11111222 
COMPS,ioos:station:USF.COMPS:C10:1,2019-02-06T11:35:00Z,27.1690,-82.9260,-1.0,17.84,11111222 
COMPS,ioos:station:USF.COMPS:C10:1,2019-02-06T13:05:00Z,27.1690,-82.9260,-1.0,17.79,11111222 
COMPS,ioos:station:USF.COMPS:C10:1,2019-02-06T13:35:00Z,27.1690,-82.9260,-1.0,17.82,11111222 
COMPS,ioos:station:USF.COMPS:C10:1,2019-02-06T14:05:00Z,27.1690,-82.9260,-1.0,17.85,11111222 
COMPS,ioos:station:USF.COMPS:C10:1,2019-02-06T14:35:00Z,27.1690,-82.9260,-1.0,17.88,11111222 
COMPS,ioos:station:USF.COMPS:C10:1,2019-02-06T15:05:00Z,27.1690,-82.9260,-1.0,17.89,11111222 
COMPS,ioos:station:USF.COMPS:C10:1,2019-02-06T15:35:00Z,27.1690,-82.9260,-1.0,17.93,11111222 
COMPS,ioos:station:USF.COMPS:C10:1,2019-02-06T16:05:00Z,27.1690,-82.9260,-1.0,17.98,11111222 
COMPS,ioos:station:USF.COMPS:C10:1,2019-02-06T16:35:00Z,27.1690,-82.9260,-1.0,18.1,11111222 
COMPS,ioos:station:USF.COMPS:C10:1,2019-02-06T17:05:00Z,27.1690,-82.9260,-1.0,18.17,11111222 
COMPS,ioos:station:USF.COMPS:C10:1,2019-02-06T17:35:00Z,27.1690,-82.9260,-1.0,18.27,11111222 
COMPS,ioos:station:USF.COMPS:C10:1,2019-02-06T18:05:00Z,27.1690,-82.9260,-1.0,18.55,11111222 
COMPS,ioos:station:USF.COMPS:C10:1,2019-02-06T18:35:00Z,27.1690,-82.9260,-1.0,18.73,11111222 
COMPS,ioos:station:USF.COMPS:C10:1,2019-02-06T19:05:00Z,27.1690,-82.9260,-1.0,19.1,11111222 
COMPS,ioos:station:USF.COMPS:C10:1,2019-02-06T19:35:00Z,27.1690,-82.9260,-1.0,19.23,11111222 
COMPS,ioos:station:USF.COMPS:C10:1,2019-02-06T20:05:00Z,27.1690,-82.9260,-1.0,19.22,11111222 
COMPS,ioos:station:USF.COMPS:C10:1,2019-02-06T20:35:00Z,27.1690,-82.9260,-1.0,19.16,11111222 
COMPS,ioos:station:USF.COMPS:C10:1,2019-02-06T21:05:00Z,27.1690,-82.9260,-1.0,19.17,11111222 
COMPS,ioos:station:USF.COMPS:C10:1,2019-02-06T21:35:00Z,27.1690,-82.9260,-1.0,19.24,11111222 